This is the latest recevied weather packets stored in our database for station/object KC3ULW-13. If no packets are shown the sender has not sent any weather packets the latest 10 day(s).
| Time | Temp. | Humidity | Pressure | Rain* | Wind** | Luminosity | Snow |
|---|---|---|---|---|---|---|---|
| 1777909901 | 19.44° C | 47% | 1012.5 hPa | 0 mm | - | 663 W/m² | - |
| 1777909598 | 19.44° C | 47% | 1012.8 hPa | 0 mm | - | 677 W/m² | - |
| 1777909295 | 18.89° C | 48% | 1013 hPa | 0 mm | - | 677 W/m² | - |
| 1777908993 | 18.89° C | 48% | 1013 hPa | 0 mm | - | 681 W/m² | - |
| 1777908691 | 18.89° C | 48% | 1013.1 hPa | 0 mm | - | 598 W/m² | - |
| 1777908387 | 18.33° C | 47% | 1013.1 hPa | 0 mm | - | 691 W/m² | - |
| 1777908084 | 18.33° C | 48% | 1013.2 hPa | 0 mm | - | 450 W/m² | - |
| 1777907780 | 18.33° C | 47% | 1013.3 hPa | 0 mm | - | 731 W/m² | - |
| 1777907475 | 18.33° C | 48% | 1013.2 hPa | 0 mm | - | 742 W/m² | - |
| 1777907172 | 17.78° C | 49% | 1013.2 hPa | 0 mm | - | 431 W/m² | - |
| 1777906869 | 18.33° C | 47% | 1013.5 hPa | 0 mm | - | 480 W/m² | - |
| 1777906567 | 18.33° C | 47% | 1013.2 hPa | 0 mm | - | 735 W/m² | - |
| 1777906261 | 18.89° C | 47% | 1013.3 hPa | 0 mm | - | 735 W/m² | - |
| 1777905958 | 18.33° C | 47% | 1013.3 hPa | 0 mm | - | 666 W/m² | - |
| 1777905655 | 18.33° C | 47% | 1013.1 hPa | 0 mm | - | 652 W/m² | - |
| 1777905352 | 18.33° C | 47% | 1013.1 hPa | 0 mm | - | 627 W/m² | - |
| 1777905050 | 18.33° C | 47% | 1013.1 hPa | 0 mm | - | 641 W/m² | - |
| 1777904747 | 17.22° C | 48% | 1013.1 hPa | 0 mm | - | 636 W/m² | - |
| 1777904444 | 17.78° C | 47% | 1012.8 hPa | 0 mm | - | 614 W/m² | - |
| 1777904141 | 17.78° C | 48% | 1013.1 hPa | 0 mm | - | 619 W/m² | - |
| 1777903838 | 17.22° C | 48% | 1013.3 hPa | 0 mm | - | 592 W/m² | - |
| 1777903534 | 16.67° C | 48% | 1013 hPa | 0 mm | - | 567 W/m² | - |
| 1777903231 | 16.67° C | 48% | 1013.1 hPa | 0 mm | - | 556 W/m² | - |
| 1777902927 | 16.67° C | 48% | 1013.2 hPa | 0 mm | - | 537 W/m² | - |
| 1777902624 | 16.67° C | 49% | 1013.5 hPa | 0 mm | - | 514 W/m² | - |
* Rain latest hour (hover to see other rain measurements)
** Current wind speed in m/s (hover to see current wind gust speed)